OBERSTADN Weather Reports


Display with metric or nautical units.
time (UTC)temp
F
wind
direction
speed
MPH
gust
MPH
rain 1hr
in
rain 24hr
in
rain mn
in
humidity
%
barometer
mb
20260504200209 59 325 9.0 0.0 0.00 0.00 0.00 66 1012.3
20260504193209 61 350 3.0 0.0 0.00 0.00 0.00 64 1012.1
20260504190209 64 319 7.0 0.0 0.00 0.00 0.00 59 1011.8
20260504183209 65 246 13.0 0.0 0.00 0.00 0.00 56 1011.9
20260504180214 67 281 10.0 0.0 0.00 0.00 0.00 53 1011.4
20260504173209 68 280 7.0 0.0 0.00 0.00 0.00 53 1011.1
20260504170210 69 333 3.0 0.0 0.00 0.00 0.00 53 1011.1
20260504160210 71 13 5.0 0.0 0.00 0.00 0.00 46 1011.0
20260504150210 74 256 5.0 0.0 0.00 0.00 0.00 39 1011.1
20260504140209 74 159 9.0 0.0 0.00 0.00 0.00 38 1011.6
20260504130215 73 17 6.0 0.0 0.00 0.00 0.00 47 1012.0
20260504120210 70 344 3.0 0.0 0.00 0.00 0.00 49 1012.6
20260504110210 70 340 4.0 0.0 0.00 0.00 0.00 45 1012.9
20260504100212 70 175 3.0 0.0 0.00 0.00 0.00 47 1013.4
20260504080210 62 28 2.0 0.0 0.00 0.00 0.00 64 1014.3
20260504070212 56 21 0.0 0.0 0.00 0.00 0.00 73 1014.5
20260504060212 50 355 0.0 0.0 0.00 0.00 0.00 83 1014.5
20260504050210 45 172 2.0 0.0 0.00 0.00 0.00 84 1014.7
20260504043211 45 173 2.0 0.0 0.00 0.00 0.00 83 1014.7
20260504040211 46 308 3.0 0.0 0.00 0.00 0.00 80 1014.7
20260504033211 47 218 3.0 0.0 0.00 0.00 0.00 80 1014.8
20260504030212 48 125 0.0 0.0 0.00 0.00 0.00 80 1014.8
20260504023211 48 125 1.0 0.0 0.00 0.00 0.00 80 1014.9
20260504020212 49 11 2.0 0.0 0.00 0.00 0.00 78 1014.9
20260504013211 49 11 2.0 0.0 0.00 0.00 0.00 76 1014.8
20260504010211 50 72 0.0 0.0 0.00 0.00 0.00 74 1015.0
20260504003210 50 72 2.0 0.0 0.00 0.00 0.00 73 1015.3
20260504000208 51 114 3.0 0.0 0.00 0.00 0.00 72 1015.2
20260503233209 52 101 0.0 0.0 0.00 0.00 0.00 71 1015.4
20260503230209 52 162 1.0 0.0 0.00 0.00 0.00 69 1015.5
20260503223210 53 238 3.0 0.0 0.00 0.00 0.00 69 1015.6
20260503213210 57 79 2.0 0.0 0.00 0.00 0.00 57 1015.3
20260503210211 59 220 4.0 0.0 0.00 0.00 0.00 51 1014.9
20260503203209 61 275 5.0 0.0 0.00 0.00 0.00 49 1014.6